TimeCDT,TemperatureF,Dew PointF,Humidity,Sea Level PressureIn,VisibilityMPH,Wind Direction,Wind SpeedMPH,Gust SpeedMPH,PrecipitationIn,Events,Conditions,WindDirDegrees,DateUTC
12:58 AM,38.7,20.8,49,30.26,10.0,Calm,Calm,-,N/A,,Clear,0,2014-03-13 05:58:00
1:58 AM,37.6,20.1,49,30.25,10.0,Calm,Calm,-,N/A,,Clear,0,2014-03-13 06:58:00
2:58 AM,36.5,21.4,54,30.25,10.0,Calm,Calm,-,N/A,,Clear,0,2014-03-13 07:58:00
3:58 AM,38.5,18.5,45,30.22,10.0,West,3.5,-,N/A,,Clear,270,2014-03-13 08:58:00
4:58 AM,40.5,17.6,40,30.22,10.0,West,6.9,-,N/A,,Clear,260,2014-03-13 09:58:00
5:58 AM,40.6,18.0,40,30.22,10.0,West,4.6,-,N/A,,Clear,270,2014-03-13 10:58:00
6:58 AM,40.1,17.2,40,30.24,10.0,WSW,4.6,-,N/A,,Clear,250,2014-03-13 11:58:00
7:58 AM,40.6,18.1,40,30.24,10.0,WSW,5.8,-,N/A,,Clear,250,2014-03-13 12:58:00
8:58 AM,44.4,19.6,37,30.25,10.0,WSW,5.8,-,N/A,,Clear,250,2014-03-13 13:58:00
9:58 AM,52.0,20.3,29,30.26,10.0,WSW,8.1,-,N/A,,Clear,240,2014-03-13 14:58:00
10:58 AM,56.1,21.0,26,30.25,10.0,WSW,11.5,-,N/A,,Clear,250,2014-03-13 15:58:00
11:58 AM,60.3,21.6,23,30.23,10.0,SW,12.7,19.6,N/A,,Clear,230,2014-03-13 16:58:00
12:58 PM,63.0,20.1,19,30.20,10.0,SW,12.7,-,N/A,,Clear,230,2014-03-13 17:58:00
1:58 PM,65.1,19.4,17,30.16,10.0,SW,10.4,18.4,N/A,,Clear,220,2014-03-13 18:58:00
2:58 PM,65.8,17.6,16,30.11,10.0,South,17.3,24.2,N/A,,Clear,190,2014-03-13 19:58:00
3:31 PM,68.0,17.6,15,30.09,10.0,SW,16.1,25.3,N/A,,Clear,230,2014-03-13 20:31:00
3:44 PM,66.2,17.6,15,30.08,10.0,South,17.3,21.9,N/A,,Clear,190,2014-03-13 20:44:00
3:58 PM,64.9,17.2,16,30.08,10.0,SW,15.0,23.0,N/A,,Clear,220,2014-03-13 20:58:00
4:58 PM,68.0,18.9,15,30.04,10.0,South,19.6,24.2,N/A,,Clear,190,2014-03-13 21:58:00
5:58 PM,66.9,17.2,15,30.02,10.0,South,17.3,25.3,N/A,,Clear,190,2014-03-13 22:58:00
6:58 PM,65.1,16.7,15,29.99,10.0,South,15.0,-,N/A,,Clear,180,2014-03-13 23:58:00
7:58 PM,60.1,18.0,20,29.98,10.0,South,11.5,-,N/A,,Clear,190,2014-03-14 00:58:00
8:58 PM,54.7,19.9,26,29.96,10.0,South,9.2,-,N/A,,Partly Cloudy,180,2014-03-14 01:58:00
9:58 PM,51.6,21.0,30,29.96,10.0,SSE,6.9,-,N/A,,Clear,160,2014-03-14 02:58:00
10:58 PM,51.4,20.3,29,29.96,10.0,South,11.5,-,N/A,,Clear,170,2014-03-14 03:58:00
11:58 PM,49.1,21.7,34,29.95,10.0,South,10.4,-,N/A,,Mostly Cloudy,180,2014-03-14 04:58:00